Content
SEND FEEDBACK

Daily
Averages
Monthly
Summary
United States of America

MELBOURNE, FLORIDA


Home > North America > United States > Florida
Elevation: 7 meters     Latitude: 28 06N     Longitude: 080 38W

WEATHER
 
SELECT A DAY
Number of Records: 187,305;   Date Range: 1/1/95 - 8/30/14
 
SHARE

PRINT THIS DATA

[ ← Previous Day ]
WEATHER ALMANAC - 31 JANUARY, 2013
[ Next Day → ]
[ °F ]   °C
Weather ElementAverageHighLow
Temperature15.5 °C21 °C (4:01 am)9.4 °C (9:53 pm)
Dewpoint9.3 °C19.4 °C (3:53 am)0.6 °C (11:53 pm)
Humidity71 %100 % (4:28 am)32 % (4:53 pm)
Barometer1018.6 hPa1023.4 hPa (10:53 pm)1013.5 hPa (2:53 am)
Wind Speed19.3 km/h37 km/h (4:01 am)
Wind Gust51.8 km/h (4:17 am)
Weather ElementAverage
Visibility14.5 km
Wind DirectionWNW (296.6 °)

Weather ElementTotal
Precipitation4.32 mm
Heating Degree Days3.2 (Base 18.3)
Growing Degree Days5.2 (Base 10)
Averaged from 29 records on 31 January, 2013
WEATHER CONDITIONS BREAKOUT
WIND DIRECTION BREAKOUT
WEATHER BY HOUR - 31 JANUARY, 2013
[ °F ]   °C
Local TimeTemperatureDewpointHumidityBarometerVisibilityWind DirectionWind SpeedGust SpeedPrecipitationEventsConditions
1:53 AM20 °C18.9 °C93 %1013.9 hPa16.1 kmSouth (190°)16.7 km/hClear
2:53 AM20 °C18.9 °C93 %1013.5 hPa16.1 kmSSW (200°)18.5 km/hClear
3:53 AM20.6 °C19.4 °C93 %1014.2 hPa16.1 kmWSW (250°)14.8 km/hOvercast
4:01 AM21 °C19 °C88 %1014.6 hPa12.9 kmWest (280°)37 km/h48.1 km/h0.25 mmRainRain
4:10 AM18 °C17 °C94 %1014.9 hPa8 kmWNW (290°)37 km/h48.1 km/h0.51 mmRainLight Rain
4:17 AM17 °C16 °C94 %1014.9 hPa8 kmWNW (300°)33.3 km/h51.8 km/h0.76 mmRainLight Rain
4:28 AM16 °C16 °C100 %1014.9 hPa6.4 kmWNW (290°)33.3 km/h0.76 mmRainLight Rain
4:53 AM15 °C15 °C100 %1015.6 hPa8 kmWNW (290°)25.9 km/h1.02 mmRainLight Rain
5:42 AM14 °C13 °C94 %1016.3 hPa16.1 kmNW (310°)22.2 km/h0.25 mmOvercast
5:53 AM13.9 °C12.8 °C93 %1016.6 hPa16.1 kmNW (320°)22.2 km/h0.25 mmOvercast
6:23 AM13 °C12 °C94 %1016.9 hPa16.1 kmNW (310°)25.9 km/h40.7 km/hOvercast
6:53 AM12.2 °C11.1 °C93 %1017.6 hPa12.9 kmWNW (300°)14.8 km/h0 mmRainLight Rain
7:53 AM12.8 °C11.7 °C93 %1018.6 hPa16.1 kmNW (320°)18.5 km/h0 mmRainLight Rain
8:53 AM13.3 °C11.1 °C87 %1019.3 hPa11.3 kmNW (310°)7.4 km/h0.25 mmRainLight Rain
9:53 AM14.4 °C11.7 °C84 %1020 hPa16.1 kmNNW (330°)16.7 km/h0.25 mmMostly Cloudy
10:53 AM16.1 °C10 °C67 %1020.3 hPa16.1 kmWNW (300°)24.1 km/h33.3 km/hPartly Cloudy
11:53 AM18.3 °C7.2 °C48 %1020 hPa16.1 kmNW (310°)20.4 km/hClear
12:53 PM18.9 °C4.4 °C38 %1019.3 hPa16.1 kmNNW (340°)20.4 km/hClear
1:53 PM19.4 °C3.3 °C34 %1019.3 hPa16.1 kmWNW (300°)16.7 km/hClear
2:53 PM19.4 °C2.8 °C33 %1019.3 hPa16.1 kmWest (280°)18.5 km/hClear
3:53 PM18.9 °C2.2 °C33 %1019.6 hPa16.1 kmWNW (290°)14.8 km/hClear
4:53 PM18.3 °C1.1 °C32 %1020 hPa16.1 kmNNW (340°)16.7 km/hClear
5:53 PM15.6 °C1.7 °C39 %1020.7 hPa16.1 kmWNW (300°)14.8 km/hClear
6:53 PM12.2 °C2.8 °C53 %1021.3 hPa16.1 kmWest (280°)11.1 km/hClear
7:53 PM11.1 °C3.3 °C59 %1022 hPa16.1 kmWest (280°)9.3 km/hClear
8:53 PM10 °C2.2 °C59 %1022.7 hPa16.1 kmNW (310°)9.3 km/hClear
9:53 PM9.4 °C2.2 °C61 %1022.7 hPa16.1 kmNW (320°)7.4 km/hClear
10:53 PM10 °C1.7 °C57 %1023.4 hPa16.1 kmNNW (330°)18.5 km/hClear
11:53 PM10 °C0.6 °C52 %1023.4 hPa16.1 kmNNW (330°)14.8 km/hClear
Hourly data recorded from KMLB, located 0 kilometers away from Melbourne, Florida







STORIES FROM OUR PARTNERS